Location: Rometta
(44.2000°N, 10.0500°E)
Time: 17:10:46
(UTC+00:00)

Cosmos 1627 Rocket - Pass Details

Date: 20 January 2021
Orbit: 951 x 1003 km, 82.9° (Epoch: 28 February)

Event Time Altitude Azimuth Distance (km) Brightness Sun altitude
Rises 18:21:08 0° 181° (S) 3,622 7.6 -22.6°
Reaches altitude 10° 18:23:36 10° 180° (S) 2,686 6.9 -23.0°
Maximum altitude 18:29:44 77° 95° (E) 999 4.3 -24.1°
Drops below altitude 10° 18:35:59 10° 11° (N) 2,738 6.7 -25.2°
Sets 18:38:32 0° 10° (N) 3,698 7.4 -25.7°
